Showing default

FLOCK 4BE 26, 60484

Orbit data source: Space-Track

FLOCK 4BE 26, 60484 is a payload satellite owned by Planet (US) in SSO that was launched on Fri, 16 Aug 2024 UTC via an FALCON 9 launch vehicle from the Air Force Western Test Range (AFWTR). Payload-class satellites include a variety of spacecraft equipped with specific instruments for various scientific and technological missions. These include communications satellites like Starlink; space stations such as the ISS; scientific satellites like the Hubble; Earth observation satellites from companies like Planet Labs, Umbra, and HawkEye 360; GPS; miniature CubeSats for education and research; and military/defense satellites.

Loading next visibility...
Identifier
60484, 2024-149S
Orbit
SSO
Country
Flag of USUS
Related business
Manufacturer
Planet
Mission
Non-operational Commercial Imaging
Bus & Motor
CUBESAT 3U, Unknown motor
Mass
5.7 kg wet, 5.7 kg dry
Launch date (UTC)
2024-08-16 (2 years ago)
Launch vehicle
FALCON 9
Launch site
Air Force Western Test Range (AFWTR)
Object type
Payload
Rocket body
Debris
Shape & HBR
Box + 2 Pan, 1.0 m
Radar Cross Section
0.072 m², Medium (>0.1 m² and < 1m²)

Expand to show TLE details & history
Last TLE update: 2 days ago

TLE from 2 days ago
0 FLOCK 4BE 26
1 60484U 24149S   26173.21032189  .00114283  00000-0  96129-3 0  9996
2 60484  97.3639 259.4899 0005426 202.2170 157.8858 15.69496813103253
Epoch: 2026-06-22T05:02Z
TLE epoch observation values (Epoch: 2026-06-22T05:02:51.811Z)
Latitude
0.00002°
Longitude
-86.62549°
Altitude
366.884 km
Speed
7.687 km/s
True Right ascension
17h 17m 57s
True Declination
0° 00' 00"
Sunlit
Object was in full shadow at epoch
Visualization orbit readout
Latitude
Unknown
Longitude
Unknown
Altitude
Unknown
Speed
Unknown
Apparent Right ascension
Unknown
Apparent Declination
Unknown
Sunlit
N/A
Visualization observer readout
Local Sidereal Time
13:49:36
Azimuth
Unknown
Elevation
Unknown
Doppler factor
Unknown
Orbital elements
Apogee altitude
360.89 km
Perigee altitude
353.581 km
Semi-major axis
6,735.372 km
Eccentricity
0.00054
Inclination
97.3639°
RAAN
259.4899°
Arg. of periapsis
202.217°
True anomaly
157.90919°
Mean anomaly
157.8858°
Eccentric anomaly
157.8975°
Mean motion
3.92646 °/min
Orbital period
91.69 mins
BSTAR
0.00096129
Loading maneuver chart data...
Computing Atmospheric mass density...
Loading historical data...
Loading historical data...
Loading historical data...
Loading historical data...
Loading historical data...
Loading historical data...
Loading historical data...

Documentation

Showing up to 5 results
|